• Em Portugal
  • Lista de países
  • Para 7 dias
  • Temperatura da água
  • Mapas de satélite
  • Mapa do tempo
  • Widgets de tempo
  • user-avatar
    Iniciar Sessão

    Previsão horária em Ashtarak

    Hoje, 19 Fevereiro, Segunda-feira

    Tempo Temperatura Precipitação Vento Pressão Humidade
    00:00 +2°C° 0,5 mm 3 m/s 652 mmHg 83%
    01:00 +2°C° 0,4 mm 3 m/s 652 mmHg 83%
    02:00 +2°C° 0,4 mm 2 m/s 652 mmHg 84%
    03:00 +1°C° 0 mm 3 m/s 652 mmHg 83%
    04:00 +2°C° 0,4 mm 2 m/s 652 mmHg 83%
    05:00 +2°C° 0,4 mm 2 m/s 653 mmHg 83%
    06:00 +2°C° 0,4 mm 2 m/s 653 mmHg 83%
    07:00 +2°C° 0,2 mm 2 m/s 653 mmHg 81%
    08:00 +2°C° 0,2 mm 2 m/s 653 mmHg 79%
    09:00 +3°C° 0,2 mm 2 m/s 654 mmHg 77%
    10:00 +3°C° 0,2 mm 2 m/s 654 mmHg 75%
    11:00 +5°C° 0,2 mm 1 m/s 654 mmHg 73%
    12:00 +6°C° 0,2 mm 1 m/s 654 mmHg 72%
    13:00 +6°C° 0,1 mm 1 m/s 654 mmHg 71%
    14:00 +6°C° 0,1 mm 1 m/s 654 mmHg 70%
    15:00 +7°C° 0,1 mm 1 m/s 654 mmHg 69%
    16:00 +6°C° 0 mm 1 m/s 654 mmHg 70%
    17:00 +5°C° 0 mm 1 m/s 654 mmHg 72%
    18:00 +4°C° 0 mm 1 m/s 654 mmHg 73%
    19:00 +3°C° 0 mm 1 m/s 654 mmHg 73%
    20:00 +3°C° 0 mm 1 m/s 654 mmHg 73%
    21:00 +2°C° 0 mm 1 m/s 655 mmHg 73%
    22:00 +2°C° 0 mm 1 m/s 655 mmHg 73%
    23:00 +1°C° 0 mm 1 m/s 655 mmHg 73%

    Amanhã, 20 Fevereiro, Terça-feira

    Tempo Temperatura Precipitação Vento Pressão Humidade
    00:00 +1°C° 0 mm 1 m/s 655 mmHg 72%
    01:00 +1°C° 0 mm 1 m/s 655 mmHg 72%
    02:00 +1°C° 0 mm 1 m/s 655 mmHg 72%
    03:00 +1°C° 0 mm 1 m/s 655 mmHg 72%
    04:00 +1°C° 0 mm 1 m/s 655 mmHg 73%
    05:00 +1°C° 0 mm 1 m/s 656 mmHg 73%
    06:00 +1°C° 0 mm 1 m/s 656 mmHg 73%
    07:00 +1°C° 0 mm 2 m/s 656 mmHg 72%
    08:00 +2°C° 0 mm 2 m/s 656 mmHg 71%
    09:00 +3°C° 0 mm 2 m/s 656 mmHg 70%
    10:00 +4°C° 0 mm 2 m/s 656 mmHg 67%
    11:00 +5°C° 0 mm 2 m/s 656 mmHg 64%
    12:00 +5°C° 0 mm 3 m/s 656 mmHg 61%
    13:00 +5°C° 0 mm 3 m/s 655 mmHg 60%
    14:00 +7°C° 0 mm 2 m/s 655 mmHg 58%
    15:00 +7°C° 0 mm 2 m/s 655 mmHg 56%
    16:00 +6°C° 0 mm 2 m/s 655 mmHg 58%
    17:00 +5°C° 0 mm 2 m/s 655 mmHg 59%
    18:00 +3°C° 0 mm 2 m/s 655 mmHg 61%
    19:00 +3°C° 0 mm 2 m/s 655 mmHg 61%
    20:00 +2°C° 0 mm 2 m/s 655 mmHg 61%
    21:00 +3°C° 0 mm 1 m/s 655 mmHg 61%
    22:00 +3°C° 0 mm 1 m/s 655 mmHg 62%
    23:00 +3°C° 0 mm 1 m/s 655 mmHg 64%

    Depois de amanhã, 21 Fevereiro, Quarta-feira

    Tempo Temperatura Precipitação Vento Pressão Humidade
    00:00 +2°C° 0 mm 1 m/s 655 mmHg 65%
    01:00 +2°C° 0 mm 1 m/s 655 mmHg 67%
    02:00 +2°C° 0 mm 1 m/s 655 mmHg 68%
    03:00 +2°C° 0 mm 1 m/s 655 mmHg 69%
    04:00 +2°C° 0,1 mm 1 m/s 655 mmHg 70%
    05:00 +2°C° 0,1 mm 1 m/s 655 mmHg 71%
    06:00 +2°C° 0,1 mm 1 m/s 655 mmHg 71%
    07:00 +3°C° 0,1 mm 1 m/s 655 mmHg 70%
    08:00 +4°C° 0,1 mm 1 m/s 655 mmHg 69%
    09:00 +4°C° 0,1 mm 2 m/s 656 mmHg 67%
    10:00 +4°C° 0,1 mm 2 m/s 656 mmHg 66%
    11:00 +5°C° 0,1 mm 2 m/s 655 mmHg 65%
    12:00 +6°C° 0,1 mm 2 m/s 655 mmHg 64%
    13:00 +6°C° 0,1 mm 2 m/s 655 mmHg 63%
    14:00 +7°C° 0,1 mm 2 m/s 654 mmHg 62%
    15:00 +7°C° 0,1 mm 2 m/s 654 mmHg 61%
    16:00 +6°C° 0,1 mm 2 m/s 654 mmHg 63%
    17:00 +5°C° 0,1 mm 2 m/s 654 mmHg 64%
    18:00 +4°C° 0,1 mm 2 m/s 654 mmHg 66%
    19:00 +5°C° 0,1 mm 1 m/s 655 mmHg 66%
    20:00 +4°C° 0,1 mm 1 m/s 655 mmHg 67%
    21:00 +4°C° 0,1 mm 1 m/s 655 mmHg 67%
    22:00 +3°C° 0 mm 1 m/s 655 mmHg 67%
    23:00 +3°C° 0 mm 1 m/s 655 mmHg 67%

    22 Fevereiro, Quinta-feira

    Tempo Temperatura Precipitação Vento Pressão Humidade
    00:00 +3°C° 0 mm 1 m/s 655 mmHg 68%
    01:00 +3°C° 0 mm 1 m/s 655 mmHg 68%
    02:00 +2°C° 0 mm 1 m/s 655 mmHg 69%
    03:00 +2°C° 0 mm 1 m/s 655 mmHg 70%
    04:00 +2°C° 0,1 mm 1 m/s 655 mmHg 70%
    05:00 +2°C° 0,1 mm 1 m/s 655 mmHg 71%
    06:00 +2°C° 0,1 mm 1 m/s 655 mmHg 72%
    07:00 +3°C° 0,1 mm 1 m/s 655 mmHg 71%
    08:00 +4°C° 0,1 mm 1 m/s 655 mmHg 70%
    09:00 +4°C° 0,1 mm 2 m/s 655 mmHg 69%
    10:00 +5°C° 0,1 mm 2 m/s 655 mmHg 68%
    11:00 +5°C° 0,1 mm 2 m/s 655 mmHg 67%
    12:00 +6°C° 0,1 mm 2 m/s 654 mmHg 66%
    13:00 +7°C° 0 mm 2 m/s 654 mmHg 65%
    14:00 +7°C° 0 mm 2 m/s 654 mmHg 64%
    15:00 +7°C° 0 mm 2 m/s 653 mmHg 62%
    16:00 +7°C° 0 mm 1 m/s 653 mmHg 64%
    17:00 +6°C° 0 mm 1 m/s 653 mmHg 65%
    18:00 +5°C° 0 mm 1 m/s 653 mmHg 67%
    19:00 +5°C° 0 mm 1 m/s 653 mmHg 67%
    20:00 +4°C° 0 mm 1 m/s 653 mmHg 67%
    21:00 +4°C° 0 mm 1 m/s 654 mmHg 67%
    22:00 +4°C° 0 mm 1 m/s 654 mmHg 67%
    23:00 +4°C° 0 mm 1 m/s 654 mmHg 67%

    23 Fevereiro, Sexta-feira

    Tempo Temperatura Precipitação Vento Pressão Humidade
    00:00 +3°C° 0 mm 1 m/s 654 mmHg 67%
    01:00 +3°C° 0 mm 1 m/s 653 mmHg 67%
    02:00 +3°C° 0 mm 1 m/s 653 mmHg 67%
    03:00 +3°C° 0 mm 1 m/s 653 mmHg 67%
    04:00 +2°C° 0 mm 1 m/s 653 mmHg 67%
    05:00 +2°C° 0 mm 1 m/s 653 mmHg 67%
    06:00 +2°C° 0 mm 1 m/s 653 mmHg 68%
    07:00 +3°C° 0 mm 1 m/s 653 mmHg 66%
    08:00 +4°C° 0 mm 1 m/s 654 mmHg 64%
    09:00 +5°C° 0 mm 1 m/s 654 mmHg 62%
    10:00 +6°C° 0 mm 1 m/s 654 mmHg 62%
    11:00 +7°C° 0 mm 1 m/s 653 mmHg 61%
    12:00 +8°C° 0 mm 1 m/s 653 mmHg 61%
    13:00 +8°C° 0 mm 1 m/s 653 mmHg 60%
    14:00 +8°C° 0 mm 1 m/s 653 mmHg 60%
    15:00 +8°C° 0 mm 1 m/s 652 mmHg 60%
    16:00 +7°C° 0 mm 1 m/s 652 mmHg 62%
    17:00 +6°C° 0 mm 1 m/s 652 mmHg 65%
    18:00 +5°C° 0 mm 1 m/s 652 mmHg 68%
    19:00 +5°C° 0 mm 1 m/s 653 mmHg 70%
    20:00 +5°C° 0 mm 1 m/s 653 mmHg 72%
    21:00 +4°C° 0 mm 1 m/s 653 mmHg 74%
    22:00 +4°C° 0 mm 1 m/s 653 mmHg 75%
    23:00 +3°C° 0 mm 1 m/s 653 mmHg 75%

    24 Fevereiro, Sábado

    Tempo Temperatura Precipitação Vento Pressão Humidade
    00:00 +3°C° 0 mm 1 m/s 653 mmHg 76%
    01:00 +3°C° 0 mm 1 m/s 653 mmHg 77%
    02:00 +3°C° 0 mm 1 m/s 653 mmHg 77%
    03:00 +2°C° 0 mm 1 m/s 653 mmHg 77%
    04:00 +2°C° 0 mm 1 m/s 653 mmHg 77%
    05:00 +2°C° 0 mm 1 m/s 653 mmHg 77%
    06:00 +1°C° 0 mm 1 m/s 653 mmHg 77%
    07:00 +2°C° 0 mm 1 m/s 653 mmHg 74%
    08:00 +4°C° 0 mm 1 m/s 654 mmHg 70%
    09:00 +5°C° 0 mm 1 m/s 654 mmHg 67%
    10:00 +6°C° 0 mm 1 m/s 654 mmHg 66%
    11:00 +7°C° 0 mm 1 m/s 654 mmHg 64%
    12:00 +7°C° 0 mm 1 m/s 653 mmHg 63%
    13:00 +8°C° 0 mm 1 m/s 653 mmHg 61%
    14:00 +8°C° 0 mm 1 m/s 653 mmHg 59%
    15:00 +8°C° 0 mm 1 m/s 652 mmHg 57%
    16:00 +7°C° 0 mm 1 m/s 652 mmHg 59%
    17:00 +5°C° 0 mm 0 m/s 652 mmHg 61%
    18:00 +4°C° 0 mm 0 m/s 652 mmHg 62%
    19:00 +3°C° 0 mm 0 m/s 652 mmHg 63%
    20:00 +4°C° 0 mm 1 m/s 653 mmHg 64%
    21:00 +3°C° 0 mm 1 m/s 653 mmHg 64%
    22:00 +3°C° 0 mm 1 m/s 653 mmHg 64%
    23:00 +3°C° 0 mm 1 m/s 653 mmHg 65%
    Mostrar mais